User: anonymous   Login
Location: Unspecified
(0.0000°N, 0.0000°E)
Time: 07:47:25
(UTC+01:00)
Language:

Hamsat - Orbit

View from above orbital plane
View from above orbital plane
View from above satellite
View from above satellite

Ground track
Ground track

The orbit data is extracted from the following two-line orbital elements,

1 28650U 05017B   18051.90269889 +.00000274 +00000-0 +34863-4 0  9991
2 28650 097.6849 023.3015 0024262 030.7454 329.5179 14.88868267693102
Epoch (UTC): 20 February 2018 21:39:53
Eccentricity: 0.0024262
inclination: 97.6849°
perigee height: 584 km
apogee height: 618 km
right ascension of ascending node: 23.3015°
argument of perigee: 30.7454°
revolutions per day: 14.88868267
mean anomaly at epoch: 329.5179°
orbit number at epoch: 69310

The dashed part of the orbit path shows where the satellite is in the earth's shadow,  

DLR